#timestamp,LO_Frequency,Hit,StdDev 
1567868415.0,286047002.4,N
1567868415.9,286047002.4,N
1567868435.7,286046999.8,N
1567868455.6,286046999.8,N
1567868475.4,286047002.7,N
1567868495.3,286047002.8,N
1567868515.1,286047000.0,N
1567868535.8,286047002.6,N
1567868555.7,286047002.3,N
1567868575.5,286047002.6,N
1567868595.4,286047002.1,N
1567868615.2,286046999.8,N
1567868635.0,286047002.7,N
1567868635.9,286047002.7,N
1567868655.8,286047001.9,N
1567868675.6,286047001.9,N
1567868695.4,286047002.5,N
1567868715.3,286047001.5,N
1567868735.1,286047002.2,N
1567868755.9,286047001.7,N
1567868775.7,286047001.7,N
1567868795.5,286047001.8,N
1567868815.4,286047001.5,N
1567868835.2,286047001.7,N
1567868855.0,286047004.0,Y
1567868856.0,286047004.0,P
1567868875.8,286046999.8,N
1567868895.6,286047000.2,N
1567868915.5,286047002.8,N
1567868935.3,286047002.7,N
1567868955.1,286047002.6,N
1567868975.9,286047002.4,N
1567868995.7,286047002.4,N
1567869015.6,286047002.6,N
1567869035.4,286047002.6,N
1567869055.2,286047002.1,N
1567869075.1,286047001.4,N
1567869076.0,286047001.4,N
1567869095.8,286047001.6,N
1567869115.7,286047001.8,N
1567869135.5,286047002.8,N
1567869155.3,286047002.6,N
1567869175.2,286047002.2,N
1567869195.9,286047001.3,N
1567869215.7,286047002.3,N
1567869235.6,286047002.5,N
1567869255.4,286047002.3,N
1567869275.6,286047002.5,N
1567869295.4,286047001.5,N
1567869315.3,286047002.0,N
1567869335.1,286047001.6,N
1567869355.9,286047001.4,N
1567869375.7,286047001.8,N
1567869395.5,286047002.0,N
1567869415.4,286047004.0,Y
1567869435.2,286046999.8,P
1567869455.1,286047000.5,N
1567869456.0,286047000.5,N
1567869475.8,286047000.8,N
1567869495.6,286046998.2,N
1567869515.5,286047000.7,N
1567869535.3,286046998.1,N
1567869555.2,286046999.3,N
1567869575.9,286046999.3,N
1567869595.7,286046999.6,N
1567869615.6,286046999.0,N
1567869635.4,286046998.4,N
1567869655.2,286046999.6,N
1567869675.1,286046996.5,Y
1567869676.0,286046996.5,P
1567869695.8,286046999.5,N
1567869715.7,286046996.5,N
1567869735.5,286046999.5,N
1567869755.3,286046997.0,N
1567869775.2,286046997.0,N
1567869795.0,286046999.6,N
1567869795.9,286046999.6,N
1567869815.8,286046996.6,N
1567869835.6,286046996.6,N
1567869855.4,286046999.5,N
1567869875.3,286046996.7,N
1567869895.1,286046996.7,N
1567869915.8,286047000.8,N
1567869935.7,286046997.4,N
1567869955.5,286046998.0,N
1567869975.4,286046995.7,N
1567869995.2,286046995.1,Y
1567870015.0,286046999.4,P
1567870015.9,286046999.4,N
1567870035.8,286047002.2,P
1567870055.6,286047009.0,Y
1567870075.5,286047008.5,P
1567870095.3,286047006.1,N
1567870115.1,286047003.4,N
1567870135.9,286047001.9,N
1567870155.7,286047002.3,N
1567870175.6,286047002.4,N
1567870195.4,286046999.8,N
1567870215.2,286046999.7,N
1567870235.1,286047002.5,N
1567870236.0,286047002.5,N
1567870255.8,286047000.1,N
1567870275.6,286047002.0,N
1567870295.5,286047001.9,N
1567870315.3,286047001.8,N
1567870335.2,286047002.5,N
1567870355.9,286047002.5,N
1567870375.7,286047002.6,N
1567870395.6,286047002.8,N
1567870415.4,286047000.1,N
1567870435.2,286047002.8,N
1567870455.1,286047002.4,N
1567870456.0,286047002.4,N
1567870475.8,286046999.9,N
1567870495.7,286047000.2,N
1567870515.5,286047000.5,N
1567870535.3,286046999.8,N
1567870555.2,286046999.7,N
1567870575.0,286047000.4,N
1567870575.9,286047000.4,N
1567870595.8,286046999.9,N
1567870615.6,286047000.7,N
1567870635.4,286046998.2,N
1567870655.3,286047000.4,N
1567870675.1,286047000.2,N
1567870695.9,286047000.2,N
1567870715.7,286047000.1,N
1567870735.5,286047000.3,N
1567870755.4,286046999.8,N
1567870775.2,286047000.3,N
1567870795.0,286046999.9,N
1567870796.0,286046999.9,N
1567870815.8,286046999.8,N
1567870835.6,286047002.3,N
1567870855.5,286047002.4,N
1567870875.3,286047002.6,N
1567870895.1,286047002.1,N
1567870915.9,286047002.4,N
1567870935.7,286047001.6,N
1567870955.6,286047002.2,N
1567870975.4,286047002.2,N
1567870995.2,286046999.8,N
1567871015.1,286047002.5,N
1567871016.0,286047002.5,N
1567871035.8,286047002.3,N
1567871055.7,286046999.7,N
1567871075.5,286046999.7,N
1567871095.3,286047000.5,N
1567871115.2,286047000.4,N
1567871135.0,286047002.4,N
1567871135.9,286047002.4,N
1567871155.8,286047002.7,N
1567871175.6,286047002.1,N
1567871195.4,286047002.1,N
1567871215.3,286047002.6,N
1567871235.1,286047002.5,N
1567871255.8,286046999.9,N
1567871275.7,286047002.3,N
1567871295.5,286047002.1,N
1567871315.4,286047001.6,N
1567871335.2,286047001.7,N
1567871355.0,286046999.8,N
1567871355.9,286046999.8,N
1567871375.8,286047000.1,N
1567871395.6,286047002.4,N
1567871415.5,286047002.6,N
1567871435.3,286047002.5,N
1567871455.1,286047001.8,N
1567871475.9,286047002.6,N
1567871495.7,286047000.1,N
1567871515.5,286047002.8,N
1567871535.4,286047000.1,N
1567871555.2,286047002.8,N
1567871575.1,286047002.5,N
1567871576.0,286047002.5,N
1567871595.8,286047002.2,N
1567871615.6,286047002.4,N
1567871635.5,286047002.7,N
1567871655.3,286047002.1,N
1567871675.2,286047002.2,N
1567871695.9,286046999.8,N
1567871715.7,286047002.4,N
1567871735.6,286047002.5,N
1567871755.4,286047002.2,N
1567871775.2,286047000.5,N
1567871795.1,286047000.6,N
1567871796.0,286047000.6,N
1567871815.8,286047000.3,N
1567871835.7,286047000.2,N
1567871855.5,286047002.4,N
1567871875.3,286047000.1,N
1567871895.2,286047002.4,N
1567871915.0,286047002.4,N
1567871915.9,286047002.4,N
1567871935.8,286047002.4,N
1567871955.6,286047002.0,N
1567871975.4,286047000.1,N
1567871995.3,286047002.2,N
